Time,TemperatureF,DewpointF,PressureIn,WindDirection,WindDirectionDegrees,WindSpeedMPH,WindSpeedGustMPH,Humidity,HourlyPrecipIn,Conditions,Clouds,dailyrainin,SoftwareType,DateUTC
2013-05-18 00:01:00,65.8,65.2,29.85,South,188,0.0,0.0,98,14.40,,,0.26,WeatherCatV1.15B25,2013-05-18 05:01:00,
2013-05-18 00:06:00,65.6,65.0,29.85,South,188,0.0,0.0,98,14.40,,,1.37,WeatherCatV1.15B25,2013-05-18 05:06:00,
2013-05-18 00:11:00,65.6,65.3,29.85,SSE,157,0.0,0.0,99,15.16,,,2.32,WeatherCatV1.15B25,2013-05-18 05:11:00,
2013-05-18 00:16:00,65.5,65.2,29.85,SSE,157,0.0,0.0,99,0.11,,,2.32,WeatherCatV1.15B25,2013-05-18 05:16:00,
2013-05-18 00:21:00,65.5,65.2,29.85,SSE,157,0.0,0.0,99,0.06,,,2.32,WeatherCatV1.15B25,2013-05-18 05:21:00,
2013-05-18 00:26:00,65.3,65.0,29.85,SSE,157,0.0,0.0,99,14.40,,,3.20,WeatherCatV1.15B25,2013-05-18 05:26:00,
2013-05-18 00:31:00,65.2,64.9,29.85,SSE,157,0.0,0.0,99,14.40,,,4.35,WeatherCatV1.15B25,2013-05-18 05:31:00,
2013-05-18 00:36:00,65.2,64.9,29.85,SSE,157,0.0,0.0,99,15.16,,,5.66,WeatherCatV1.15B25,2013-05-18 05:36:00,
2013-05-18 00:41:00,65.0,64.7,29.85,SSE,157,0.0,0.0,99,0.44,,,6.51,WeatherCatV1.15B25,2013-05-18 05:41:00,
2013-05-18 00:46:00,65.0,64.7,29.85,SSE,157,0.0,0.0,99,14.40,,,6.53,WeatherCatV1.15B25,2013-05-18 05:46:00,
2013-05-18 00:51:00,65.0,64.7,29.85,SSE,157,0.0,0.0,99,15.16,,,7.55,WeatherCatV1.15B25,2013-05-18 05:51:00,
2013-05-18 00:56:00,64.8,64.5,29.85,SSE,157,0.0,0.0,99,14.40,,,8.23,WeatherCatV1.15B25,2013-05-18 05:56:00,
2013-05-18 01:01:00,64.8,64.5,29.84,SSE,157,0.0,0.0,99,0.14,,,8.43,WeatherCatV1.15B25,2013-05-18 06:01:00,
2013-05-18 01:06:00,64.7,64.4,29.84,SSE,157,0.0,0.0,99,0.08,,,8.44,WeatherCatV1.15B25,2013-05-18 06:06:00,
2013-05-18 01:11:00,64.7,64.4,29.84,SSE,157,0.0,0.0,99,0.11,,,8.45,WeatherCatV1.15B25,2013-05-18 06:11:00,
2013-05-18 01:16:00,64.7,64.7,29.85,SSE,157,0.0,0.0,100,15.16,,,8.86,WeatherCatV1.15B25,2013-05-18 06:16:00,
2013-05-18 01:21:00,64.7,64.7,29.85,SSE,158,0.0,0.0,100,15.16,,,9.72,WeatherCatV1.15B25,2013-05-18 06:21:00,
2013-05-18 01:26:00,64.5,64.5,29.85,SSE,158,0.0,0.0,100,15.16,,,10.78,WeatherCatV1.15B25,2013-05-18 06:26:00,
2013-05-18 01:31:00,64.5,64.5,29.85,SSE,158,0.0,0.0,100,15.16,,,12.05,WeatherCatV1.15B25,2013-05-18 06:31:00,
2013-05-18 01:36:00,64.3,64.3,29.85,SSE,158,0.0,0.0,100,14.40,,,12.26,WeatherCatV1.15B25,2013-05-18 06:36:00,
2013-05-18 01:41:00,64.3,64.3,29.85,SSE,158,0.0,0.0,100,15.16,,,13.37,WeatherCatV1.15B25,2013-05-18 06:41:00,
2013-05-18 01:46:00,64.3,64.3,29.85,SSE,158,0.0,0.0,100,15.16,,,14.56,WeatherCatV1.15B25,2013-05-18 06:46:00,
2013-05-18 01:51:00,64.3,64.3,29.85,SSE,158,0.0,0.0,100,0.51,,,15.57,WeatherCatV1.15B25,2013-05-18 06:51:00,
2013-05-18 01:56:00,64.3,64.3,29.85,SSE,158,0.0,0.0,100,0.10,,,15.57,WeatherCatV1.15B25,2013-05-18 06:56:00,
2013-05-18 02:01:00,64.3,64.3,29.85,SSE,158,0.0,0.0,100,0.05,,,15.57,WeatherCatV1.15B25,2013-05-18 07:01:00,
2013-05-18 02:06:00,64.3,64.3,29.85,SSE,158,0.0,0.0,100,0.04,,,15.57,WeatherCatV1.15B25,2013-05-18 07:06:00,
2013-05-18 02:11:00,64.3,64.3,29.85,SSE,158,0.0,0.0,100,0.00,,,15.57,WeatherCatV1.15B25,2013-05-18 07:11:00,
2013-05-18 02:16:00,64.3,64.3,29.85,SSE,158,0.0,0.0,100,0.00,,,15.57,WeatherCatV1.15B25,2013-05-18 07:16:00,
2013-05-18 02:21:00,64.3,64.3,29.85,SSE,158,0.0,0.0,100,0.00,,,15.57,WeatherCatV1.15B25,2013-05-18 07:21:00,
2013-05-18 02:26:00,64.3,64.3,29.85,SSE,158,0.0,0.0,100,0.00,,,15.57,WeatherCatV1.15B25,2013-05-18 07:26:00,
2013-05-18 02:31:00,64.3,64.3,29.85,SSE,158,0.0,0.0,100,0.00,,,15.57,WeatherCatV1.15B25,2013-05-18 07:31:00,
2013-05-18 02:36:00,64.3,64.3,29.85,SSE,158,0.0,0.0,100,0.00,,,15.57,WeatherCatV1.15B25,2013-05-18 07:36:00,
2013-05-18 02:41:00,64.2,64.2,29.85,SSE,158,0.0,0.0,100,0.00,,,15.57,WeatherCatV1.15B25,2013-05-18 07:41:00,
2013-05-18 02:46:00,64.2,64.2,29.85,SSE,158,0.0,0.0,100,0.00,,,15.57,WeatherCatV1.15B25,2013-05-18 07:46:00,
2013-05-18 02:51:00,64.0,64.0,29.85,SSE,158,0.0,0.0,100,0.00,,,15.57,WeatherCatV1.15B25,2013-05-18 07:51:00,
2013-05-18 02:56:00,64.0,64.0,29.85,SSE,158,0.0,0.0,100,0.00,,,15.57,WeatherCatV1.15B25,2013-05-18 07:56:00,
2013-05-18 03:01:00,63.9,63.9,29.85,SSE,157,0.0,0.0,100,0.00,,,15.57,WeatherCatV1.15B25,2013-05-18 08:01:00,
2013-05-18 03:06:00,63.9,63.9,29.85,SSE,158,0.0,0.0,100,0.00,,,15.57,WeatherCatV1.15B25,2013-05-18 08:06:00,
2013-05-18 03:11:00,64.0,64.0,29.85,SSE,158,0.0,0.0,100,0.00,,,15.57,WeatherCatV1.15B25,2013-05-18 08:11:00,
2013-05-18 03:16:00,64.0,64.0,29.85,South,169,0.0,0.0,100,0.00,,,15.57,WeatherCatV1.15B25,2013-05-18 08:16:00,
2013-05-18 03:21:00,64.0,64.0,29.85,South,169,0.0,0.0,100,0.00,,,15.57,WeatherCatV1.15B25,2013-05-18 08:21:00,
2013-05-18 03:26:00,64.0,64.0,29.85,South,169,0.0,5.0,100,0.00,,,15.57,WeatherCatV1.15B25,2013-05-18 08:26:00,
2013-05-18 03:31:00,64.0,64.0,29.86,South,169,0.0,0.0,100,0.00,,,15.57,WeatherCatV1.15B25,2013-05-18 08:31:00,
2013-05-18 03:36:00,64.0,64.0,29.86,SSE,168,0.0,0.0,100,0.00,,,15.57,WeatherCatV1.15B25,2013-05-18 08:36:00,
2013-05-18 03:41:00,64.0,64.0,29.86,South,169,0.0,1.0,100,0.00,,,15.57,WeatherCatV1.15B25,2013-05-18 08:41:00,
2013-05-18 03:46:00,64.0,64.0,29.86,South,169,0.0,0.0,100,0.00,,,15.57,WeatherCatV1.15B25,2013-05-18 08:46:00,
2013-05-18 03:51:00,63.9,63.9,29.86,South,171,0.0,0.0,100,0.00,,,15.57,WeatherCatV1.15B25,2013-05-18 08:51:00,
2013-05-18 03:56:00,64.0,64.0,29.86,South,171,0.0,0.0,100,0.00,,,15.57,WeatherCatV1.15B25,2013-05-18 08:56:00,
2013-05-18 04:01:00,64.0,64.0,29.87,South,169,0.0,0.0,100,0.00,,,15.57,WeatherCatV1.15B25,2013-05-18 09:01:00,
2013-05-18 04:06:00,64.0,64.0,29.87,South,171,0.0,0.0,100,0.00,,,15.57,WeatherCatV1.15B25,2013-05-18 09:06:00,
2013-05-18 04:11:00,64.0,64.0,29.87,South,171,0.0,0.0,100,0.00,,,15.57,WeatherCatV1.15B25,2013-05-18 09:11:00,
2013-05-18 04:16:00,64.0,64.0,29.87,South,171,0.0,0.0,100,0.00,,,15.57,WeatherCatV1.15B25,2013-05-18 09:16:00,
2013-05-18 04:21:00,64.0,64.0,29.87,South,169,0.0,0.0,100,0.00,,,15.57,WeatherCatV1.15B25,2013-05-18 09:21:00,
2013-05-18 04:26:00,64.0,64.0,29.87,South,169,0.0,0.0,100,0.00,,,15.57,WeatherCatV1.15B25,2013-05-18 09:26:00,
2013-05-18 04:31:00,64.0,64.0,29.87,South,169,0.0,0.0,100,0.00,,,15.57,WeatherCatV1.15B25,2013-05-18 09:31:00,
2013-05-18 04:36:00,64.0,64.0,29.87,South,171,0.0,0.0,100,0.00,,,15.57,WeatherCatV1.15B25,2013-05-18 09:36:00,
2013-05-18 04:41:00,64.0,64.0,29.87,South,169,0.0,0.0,100,0.00,,,15.57,WeatherCatV1.15B25,2013-05-18 09:41:00,
2013-05-18 04:46:00,63.9,63.9,29.87,South,171,0.0,0.0,100,0.00,,,15.57,WeatherCatV1.15B25,2013-05-18 09:46:00,
2013-05-18 04:51:00,63.9,63.9,29.87,South,169,6.0,6.0,100,0.00,,,15.57,WeatherCatV1.15B25,2013-05-18 09:51:00,
2013-05-18 04:56:00,63.7,63.7,29.87,South,169,0.0,0.0,100,0.00,,,15.57,WeatherCatV1.15B25,2013-05-18 09:56:00,
2013-05-18 05:01:00,63.7,63.7,29.87,South,169,0.0,1.0,100,0.00,,,15.57,WeatherCatV1.15B25,2013-05-18 10:01:00,
2013-05-18 05:06:00,63.7,63.7,29.87,SSE,162,0.0,1.0,100,0.00,,,15.57,WeatherCatV1.15B25,2013-05-18 10:06:00,
2013-05-18 05:11:00,63.5,63.5,29.87,SSE,161,0.0,3.0,100,0.00,,,15.57,WeatherCatV1.15B25,2013-05-18 10:11:00,
2013-05-18 05:16:00,63.5,63.5,29.87,SSE,161,0.0,0.0,100,0.00,,,15.57,WeatherCatV1.15B25,2013-05-18 10:16:00,
2013-05-18 05:21:00,63.5,63.5,29.87,SSE,161,0.0,0.0,100,0.00,,,15.57,WeatherCatV1.15B25,2013-05-18 10:21:00,
2013-05-18 05:26:00,63.5,63.5,29.87,SSE,162,0.0,0.0,100,0.00,,,15.57,WeatherCatV1.15B25,2013-05-18 10:26:00,
2013-05-18 05:31:00,63.5,63.5,29.87,SSE,161,0.0,0.0,100,0.00,,,15.57,WeatherCatV1.15B25,2013-05-18 10:31:00,
2013-05-18 05:36:00,63.5,63.5,29.87,SSE,162,0.0,1.0,100,0.00,,,15.57,WeatherCatV1.15B25,2013-05-18 10:36:00,
2013-05-18 05:41:00,63.5,63.5,29.87,SSE,162,0.0,0.0,100,0.00,,,15.57,WeatherCatV1.15B25,2013-05-18 10:41:00,
2013-05-18 05:46:00,63.5,63.5,29.86,SSE,162,0.0,0.0,100,0.00,,,15.57,WeatherCatV1.15B25,2013-05-18 10:46:00,
2013-05-18 05:51:00,63.5,63.5,29.86,SSE,154,0.0,0.0,100,0.00,,,15.57,WeatherCatV1.15B25,2013-05-18 10:51:00,
2013-05-18 05:56:00,63.5,63.5,29.86,SSE,155,0.0,1.0,100,0.00,,,15.57,WeatherCatV1.15B25,2013-05-18 10:56:00,
2013-05-18 06:01:00,63.4,63.4,29.87,SSE,154,0.0,2.0,100,0.00,,,15.57,WeatherCatV1.15B25,2013-05-18 11:01:00,
2013-05-18 06:06:00,63.4,63.4,29.87,SSE,155,0.0,0.0,100,0.00,,,15.57,WeatherCatV1.15B25,2013-05-18 11:06:00,
2013-05-18 06:11:00,63.4,63.4,29.87,SSE,154,0.0,0.0,100,0.00,,,15.57,WeatherCatV1.15B25,2013-05-18 11:11:00,
2013-05-18 06:16:00,63.4,63.4,29.87,SSE,155,0.0,0.0,100,0.00,,,15.57,WeatherCatV1.15B25,2013-05-18 11:16:00,
2013-05-18 06:21:00,63.4,63.4,29.87,SSE,151,0.0,0.0,100,0.00,,,15.57,WeatherCatV1.15B25,2013-05-18 11:21:00,
2013-05-18 06:26:00,63.4,63.4,29.87,SSE,151,0.0,0.0,100,0.00,,,15.57,WeatherCatV1.15B25,2013-05-18 11:26:00,
2013-05-18 06:31:00,63.4,63.4,29.87,SSE,152,0.0,8.0,100,0.00,,,15.57,WeatherCatV1.15B25,2013-05-18 11:31:00,
2013-05-18 06:36:00,63.4,63.4,29.87,SSE,150,0.0,0.0,100,0.00,,,15.57,WeatherCatV1.15B25,2013-05-18 11:36:00,
2013-05-18 06:38:00,63.4,63.4,29.87,SSE,151,0.0,0.0,100,0.00,,,15.57,WeatherCatV1.15B25,2013-05-18 11:38:00,
2013-05-18 06:43:00,63.5,63.5,29.87,SSE,151,0.0,1.0,100,0.00,,,15.57,WeatherCatV1.15B25,2013-05-18 11:43:00,
2013-05-18 06:48:00,63.5,63.5,29.87,SSE,151,0.0,0.0,100,0.00,,,15.57,WeatherCatV1.15B25,2013-05-18 11:48:00,
2013-05-18 06:53:00,63.7,63.7,29.87,SSE,151,0.0,0.0,100,14.40,,,15.77,WeatherCatV1.15B25,2013-05-18 11:53:00,
2013-05-18 06:58:00,63.7,63.7,29.87,SSE,151,0.0,0.0,100,0.69,,,16.26,WeatherCatV1.15B25,2013-05-18 11:58:00,
2013-05-18 07:03:00,63.9,63.9,29.88,SSE,151,0.0,0.0,100,28.80,,,16.46,WeatherCatV1.15B25,2013-05-18 12:03:00,
2013-05-18 07:08:00,63.9,63.9,29.88,SSE,151,0.0,0.0,100,0.70,,,16.79,WeatherCatV1.15B25,2013-05-18 12:08:00,
2013-05-18 07:13:00,64.0,64.0,29.88,SSE,150,0.0,0.0,100,0.31,,,17.11,WeatherCatV1.15B25,2013-05-18 12:13:00,
2013-05-18 07:18:00,64.2,64.2,29.88,SSE,150,0.0,0.0,100,15.16,,,17.62,WeatherCatV1.15B25,2013-05-18 12:18:00,
2013-05-18 07:23:00,64.3,64.3,29.88,SSE,150,0.0,0.0,100,15.16,,,18.77,WeatherCatV1.15B25,2013-05-18 12:23:00,
2013-05-18 07:28:00,64.5,64.5,29.88,SSE,150,0.0,2.0,100,15.16,,,19.92,WeatherCatV1.15B25,2013-05-18 12:28:00,
2013-05-18 07:33:00,64.7,64.7,29.88,SSE,150,0.0,0.0,100,15.16,,,20.37,WeatherCatV1.15B25,2013-05-18 12:33:00,
2013-05-18 07:38:00,64.8,64.8,29.88,SSE,150,0.0,0.0,100,0.16,,,20.42,WeatherCatV1.15B25,2013-05-18 12:38:00,
2013-05-18 07:43:00,65.3,65.3,29.88,SSE,150,0.0,0.0,100,0.06,,,20.42,WeatherCatV1.15B25,2013-05-18 12:43:00,
2013-05-18 07:48:00,65.5,65.5,29.89,SSE,150,0.0,0.0,100,0.04,,,20.42,WeatherCatV1.15B25,2013-05-18 12:48:00,
2013-05-18 07:53:00,65.6,65.6,29.89,SSE,150,0.0,0.0,100,0.00,,,20.42,WeatherCatV1.15B25,2013-05-18 12:53:00,
2013-05-18 07:58:00,66.0,66.0,29.89,SSE,150,0.0,0.0,100,0.00,,,20.42,WeatherCatV1.15B25,2013-05-18 12:58:00,
2013-05-18 08:03:00,66.1,66.1,29.89,SSE,150,0.0,0.0,100,0.00,,,20.42,WeatherCatV1.15B25,2013-05-18 13:03:00,
2013-05-18 08:08:00,66.1,66.1,29.89,SSE,150,0.0,0.0,100,0.00,,,20.42,WeatherCatV1.15B25,2013-05-18 13:08:00,
2013-05-18 08:13:00,66.1,66.1,29.89,SSE,150,0.0,0.0,100,0.00,,,20.42,WeatherCatV1.15B25,2013-05-18 13:13:00,
2013-05-18 08:18:00,66.4,66.4,29.89,SSE,150,0.0,0.0,100,0.00,,,20.42,WeatherCatV1.15B25,2013-05-18 13:18:00,
2013-05-18 08:23:00,66.8,66.8,29.89,SSE,150,0.0,0.0,100,0.00,,,20.42,WeatherCatV1.15B25,2013-05-18 13:23:00,
2013-05-18 08:28:00,66.9,66.9,29.89,SE,140,0.0,0.0,100,0.00,,,20.42,WeatherCatV1.15B25,2013-05-18 13:28:00,
2013-05-18 08:33:00,66.9,66.9,29.90,SE,137,0.0,0.0,100,0.00,,,20.42,WeatherCatV1.15B25,2013-05-18 13:33:00,
2013-05-18 08:38:00,67.1,67.1,29.90,SE,136,0.0,0.0,100,0.00,,,20.42,WeatherCatV1.15B25,2013-05-18 13:38:00,
2013-05-18 08:43:00,67.1,67.1,29.90,SE,134,0.0,0.0,100,0.12,,,20.49,WeatherCatV1.15B25,2013-05-18 13:43:00,
2013-05-18 08:48:00,66.9,66.9,29.90,SE,134,0.0,0.0,100,0.36,,,20.77,WeatherCatV1.15B25,2013-05-18 13:48:00,
2013-05-18 08:52:00,67.3,67.3,29.90,SE,134,0.0,0.0,100,0.58,,,20.85,WeatherCatV1.15B25,2013-05-18 13:52:00,
2013-05-18 08:57:00,68.1,68.1,29.90,SE,140,0.0,0.0,100,0.47,,,20.87,WeatherCatV1.15B25,2013-05-18 13:57:00,
2013-05-18 09:02:00,68.3,68.0,29.89,SE,144,0.0,0.0,99,0.42,,,21.19,WeatherCatV1.15B25,2013-05-18 14:02:00,
2013-05-18 09:07:00,68.8,68.5,29.89,SE,143,0.0,0.0,99,0.09,,,21.19,WeatherCatV1.15B25,2013-05-18 14:07:00,
2013-05-18 09:12:00,69.1,68.5,29.89,SE,141,0.0,0.0,98,0.05,,,21.19,WeatherCatV1.15B25,2013-05-18 14:12:00,
2013-05-18 09:17:00,69.1,67.9,29.90,ESE,113,0.0,1.0,96,14.40,,,21.71,WeatherCatV1.15B25,2013-05-18 14:17:00,
2013-05-18 09:22:00,69.4,68.2,29.90,ESE,121,0.0,0.0,96,0.25,,,22.32,WeatherCatV1.15B25,2013-05-18 14:22:00,
2013-05-18 09:27:00,69.8,68.0,29.90,ESE,104,0.0,1.0,94,0.08,,,22.32,WeatherCatV1.15B25,2013-05-18 14:27:00,
2013-05-18 09:32:00,69.9,67.5,29.89,SE,144,0.0,0.0,92,0.05,,,22.32,WeatherCatV1.15B25,2013-05-18 14:32:00,
2013-05-18 09:37:00,70.3,67.5,29.89,ESE,117,0.0,3.0,91,0.00,,,22.32,WeatherCatV1.15B25,2013-05-18 14:37:00,
2013-05-18 09:42:00,70.6,67.2,29.89,SE,136,0.0,3.0,89,0.00,,,22.32,WeatherCatV1.15B25,2013-05-18 14:42:00,
2013-05-18 09:47:00,71.1,67.0,29.89,SE,134,1.0,1.0,87,0.00,,,22.32,WeatherCatV1.15B25,2013-05-18 14:47:00,
2013-05-18 09:52:00,71.1,66.4,29.89,SSE,161,0.0,0.0,85,14.40,,,23.14,WeatherCatV1.15B25,2013-05-18 14:52:00,
2013-05-18 09:57:00,71.3,66.2,29.89,SE,145,0.0,0.0,84,14.40,,,24.33,WeatherCatV1.15B25,2013-05-18 14:57:00,
2013-05-18 10:02:00,71.8,67.0,29.89,SE,141,0.0,1.0,85,15.16,,,25.54,WeatherCatV1.15B25,2013-05-18 15:02:00,
2013-05-18 10:07:00,71.8,66.3,29.89,SSE,162,0.0,1.0,83,15.16,,,26.51,WeatherCatV1.15B25,2013-05-18 15:07:00,
2013-05-18 10:12:00,72.0,66.2,29.89,ESE,120,0.0,1.0,82,14.40,,,27.70,WeatherCatV1.15B25,2013-05-18 15:12:00,
2013-05-18 10:17:00,72.3,66.5,29.88,East,99,0.0,0.0,82,14.40,,,28.93,WeatherCatV1.15B25,2013-05-18 15:17:00,
2013-05-18 10:22:00,73.0,66.8,29.88,SE,130,0.0,0.0,81,0.35,,,29.72,WeatherCatV1.15B25,2013-05-18 15:22:00,
2013-05-18 10:27:00,73.0,66.5,29.88,ESE,112,0.0,0.0,80,15.16,,,30.40,WeatherCatV1.15B25,2013-05-18 15:27:00,
2013-05-18 10:31:00,72.7,65.8,29.88,SSE,158,0.0,0.0,79,15.16,,,31.43,WeatherCatV1.15B25,2013-05-18 15:31:00,
2013-05-18 10:36:00,72.8,66.3,29.88,SE,141,0.0,0.0,80,14.40,,,32.66,WeatherCatV1.15B25,2013-05-18 15:36:00,
2013-05-18 10:41:00,73.3,66.4,29.88,ESE,123,0.0,11.0,79,15.16,,,33.85,WeatherCatV1.15B25,2013-05-18 15:41:00,
2013-05-18 10:46:00,73.5,65.5,29.88,SE,130,0.0,8.0,76,0.18,,,34.10,WeatherCatV1.15B25,2013-05-18 15:46:00,
2013-05-18 10:51:00,73.7,66.0,29.88,SE,128,0.0,0.0,77,32.00,,,34.48,WeatherCatV1.15B25,2013-05-18 15:51:00,
2013-05-18 10:56:00,73.9,66.2,29.88,SW,229,0.0,0.0,77,15.16,,,35.31,WeatherCatV1.15B25,2013-05-18 15:56:00,
2013-05-18 11:01:00,74.0,66.7,29.88,SSW,193,0.0,0.0,78,14.40,,,36.54,WeatherCatV1.15B25,2013-05-18 16:01:00,
2013-05-18 11:06:00,73.7,66.0,29.88,South,191,0.0,3.0,77,14.40,,,37.60,WeatherCatV1.15B25,2013-05-18 16:06:00,
2013-05-18 11:11:00,73.3,65.3,29.88,SE,133,0.0,2.0,76,15.16,,,38.83,WeatherCatV1.15B25,2013-05-18 16:11:00,
2013-05-18 11:16:00,73.2,65.5,29.89,SW,226,0.0,0.0,77,14.40,,,39.81,WeatherCatV1.15B25,2013-05-18 16:16:00,
2013-05-18 11:21:00,73.0,64.6,29.89,SSE,161,0.0,0.0,75,0.85,,,40.85,WeatherCatV1.15B25,2013-05-18 16:21:00,
2013-05-18 11:26:00,73.7,64.9,29.89,SE,145,0.0,0.0,74,26.18,,,41.47,WeatherCatV1.15B25,2013-05-18 16:26:00,
2013-05-18 11:31:00,74.2,65.0,29.88,ESE,104,0.0,1.0,73,14.40,,,42.59,WeatherCatV1.15B25,2013-05-18 16:31:00,
2013-05-18 11:36:00,74.0,64.0,29.88,SSW,205,0.0,0.0,71,14.40,,,43.86,WeatherCatV1.15B25,2013-05-18 16:36:00,
2013-05-18 11:41:00,74.0,64.4,29.88,SSW,203,0.0,0.0,72,15.16,,,45.05,WeatherCatV1.15B25,2013-05-18 16:41:00,
2013-05-18 11:46:00,74.6,65.7,29.88,ESE,120,0.0,0.0,74,15.16,,,45.80,WeatherCatV1.15B25,2013-05-18 16:46:00,
2013-05-18 11:51:00,74.6,65.0,29.88,SSE,168,0.0,0.0,72,15.16,,,46.99,WeatherCatV1.15B25,2013-05-18 16:51:00,
2013-05-18 11:56:00,74.6,64.6,29.88,SSE,161,0.0,0.0,71,14.40,,,48.18,WeatherCatV1.15B25,2013-05-18 16:56:00,
2013-05-18 12:01:00,74.4,65.2,29.88,SSW,210,0.0,0.0,73,15.16,,,49.45,WeatherCatV1.15B25,2013-05-18 17:01:00,
2013-05-18 12:06:00,74.2,64.2,29.88,South,184,0.0,0.0,71,14.40,,,50.64,WeatherCatV1.15B25,2013-05-18 17:06:00,
2013-05-18 12:11:00,74.4,64.0,29.88,SSW,195,0.0,0.0,70,15.16,,,51.75,WeatherCatV1.15B25,2013-05-18 17:11:00,
2013-05-18 12:16:00,74.9,65.2,29.88,SSE,148,0.0,1.0,72,15.16,,,52.98,WeatherCatV1.15B25,2013-05-18 17:16:00,
2013-05-18 12:21:00,75.4,64.1,29.88,SE,134,0.0,0.0,68,14.40,,,54.21,WeatherCatV1.15B25,2013-05-18 17:21:00,
2013-05-18 12:26:00,75.4,63.2,29.88,South,189,1.0,1.0,66,14.40,,,55.40,WeatherCatV1.15B25,2013-05-18 17:26:00,
2013-05-18 12:31:00,75.4,63.2,29.88,South,176,0.0,2.0,66,14.40,,,56.55,WeatherCatV1.15B25,2013-05-18 17:31:00,
2013-05-18 12:36:00,75.4,63.7,29.88,SE,140,0.0,3.0,67,0.20,,,57.09,WeatherCatV1.15B25,2013-05-18 17:36:00,
2013-05-18 12:41:00,75.8,64.5,29.88,SSW,198,0.0,2.0,68,14.40,,,57.87,WeatherCatV1.15B25,2013-05-18 17:41:00,
2013-05-18 12:46:00,76.1,63.5,29.86,SW,224,0.0,3.0,65,14.40,,,59.14,WeatherCatV1.15B25,2013-05-18 17:46:00,
2013-05-18 12:51:00,76.3,64.5,29.86,SSW,203,0.0,0.0,67,14.40,,,60.33,WeatherCatV1.15B25,2013-05-18 17:51:00,
2013-05-18 12:56:00,76.8,65.8,29.86,SSW,198,0.0,6.0,69,15.16,,,61.52,WeatherCatV1.15B25,2013-05-18 17:56:00,
2013-05-18 13:01:00,76.8,64.1,29.86,SE,134,1.0,13.0,65,15.16,,,62.67,WeatherCatV1.15B25,2013-05-18 18:01:00,
2013-05-18 13:06:00,76.7,63.6,29.86,South,179,0.0,1.0,64,14.40,,,63.78,WeatherCatV1.15B25,2013-05-18 18:06:00,
2013-05-18 13:11:00,76.5,64.3,29.86,ESE,114,0.0,2.0,66,14.40,,,65.05,WeatherCatV1.15B25,2013-05-18 18:11:00,
2013-05-18 13:16:00,76.3,64.9,29.86,SSW,206,0.0,2.0,68,15.16,,,66.25,WeatherCatV1.15B25,2013-05-18 18:16:00,
2013-05-18 13:21:00,76.5,63.4,29.86,ESE,113,0.0,2.0,64,15.16,,,67.48,WeatherCatV1.15B25,2013-05-18 18:21:00,
2013-05-18 13:26:00,77.2,64.5,29.86,South,179,0.0,0.0,65,14.40,,,68.59,WeatherCatV1.15B25,2013-05-18 18:26:00,
2013-05-18 13:31:00,77.7,62.7,29.85,SSW,203,0.0,0.0,60,0.12,,,68.65,WeatherCatV1.15B25,2013-05-18 18:31:00,
2013-05-18 13:36:00,78.1,63.1,29.85,SSE,157,0.0,2.0,60,0.06,,,68.65,WeatherCatV1.15B25,2013-05-18 18:36:00,
2013-05-18 13:41:00,78.1,65.4,29.85,SSE,150,0.0,1.0,65,0.04,,,68.65,WeatherCatV1.15B25,2013-05-18 18:41:00,
2013-05-18 13:46:00,78.1,64.0,29.84,SSW,200,0.0,2.0,62,15.16,,,69.77,WeatherCatV1.15B25,2013-05-18 18:46:00,
2013-05-18 13:51:00,78.1,64.5,29.84,ESE,103,0.0,0.0,63,15.16,,,70.92,WeatherCatV1.15B25,2013-05-18 18:51:00,
2013-05-18 13:56:00,77.4,65.1,29.84,SE,140,0.0,0.0,66,14.40,,,72.11,WeatherCatV1.15B25,2013-05-18 18:56:00,
2013-05-18 14:01:00,76.8,65.0,29.84,SE,133,0.0,0.0,67,14.40,,,73.30,WeatherCatV1.15B25,2013-05-18 19:01:00,
2013-05-18 14:06:00,76.5,63.8,29.84,SE,131,0.0,5.0,65,0.33,,,73.80,WeatherCatV1.15B25,2013-05-18 19:06:00,
2013-05-18 14:11:00,76.3,63.6,29.84,SE,137,0.0,0.0,65,0.09,,,73.80,WeatherCatV1.15B25,2013-05-18 19:11:00,
2013-05-18 14:16:00,76.5,64.7,29.83,SSE,160,0.0,0.0,67,0.05,,,73.80,WeatherCatV1.15B25,2013-05-18 19:16:00,
2013-05-18 14:21:00,76.7,64.5,29.83,SE,124,1.0,1.0,66,0.04,,,73.80,WeatherCatV1.15B25,2013-05-18 19:21:00,
2013-05-18 14:26:00,77.4,64.2,29.83,SE,128,0.0,3.0,64,0.00,,,73.80,WeatherCatV1.15B25,2013-05-18 19:26:00,
2013-05-18 14:31:00,77.6,64.4,29.83,SSE,150,0.0,2.0,64,14.40,,,75.03,WeatherCatV1.15B25,2013-05-18 19:31:00,
2013-05-18 14:36:00,77.7,64.5,29.83,ESE,113,0.0,2.0,64,14.40,,,76.18,WeatherCatV1.15B25,2013-05-18 19:36:00,
2013-05-18 14:41:00,77.9,62.4,29.83,SE,144,0.0,18.0,59,15.16,,,77.38,WeatherCatV1.15B25,2013-05-18 19:41:00,
2013-05-18 14:46:00,77.7,64.5,29.83,SE,127,0.0,3.0,64,0.25,,,77.98,WeatherCatV1.15B25,2013-05-18 19:46:00,
2013-05-18 14:51:00,77.7,64.5,29.83,SE,124,0.0,0.0,64,14.40,,,78.85,WeatherCatV1.15B25,2013-05-18 19:51:00,
2013-05-18 14:56:00,78.3,65.1,29.83,SE,134,1.0,6.0,64,14.40,,,80.05,WeatherCatV1.15B25,2013-05-18 19:56:00,
2013-05-18 15:01:00,78.6,64.5,29.82,SE,140,2.0,24.0,62,15.16,,,81.16,WeatherCatV1.15B25,2013-05-18 20:01:00,
2013-05-18 15:07:00,78.8,64.7,29.82,SE,138,0.0,7.0,62,15.16,,,82.39,WeatherCatV1.15B25,2013-05-18 20:07:00,
2013-05-18 15:12:00,79.4,66.6,29.82,ESE,117,0.0,1.0,65,14.40,,,83.28,WeatherCatV1.15B25,2013-05-18 20:12:00,
2013-05-18 15:17:00,79.6,65.4,29.82,SE,128,0.0,0.0,62,0.15,,,83.56,WeatherCatV1.15B25,2013-05-18 20:17:00,
2013-05-18 15:22:00,79.6,64.5,29.82,SE,127,0.0,0.0,60,0.07,,,83.56,WeatherCatV1.15B25,2013-05-18 20:22:00,
2013-05-18 15:27:00,79.2,63.1,29.82,SE,144,0.0,2.0,58,0.04,,,83.56,WeatherCatV1.15B25,2013-05-18 20:27:00,
2013-05-18 15:32:00,79.2,65.5,29.82,SE,126,0.0,1.0,63,0.00,,,83.56,WeatherCatV1.15B25,2013-05-18 20:32:00,
2013-05-18 15:37:00,78.6,63.0,29.82,SSE,155,2.0,3.0,59,0.00,,,83.56,WeatherCatV1.15B25,2013-05-18 20:37:00,
2013-05-18 15:42:00,78.6,63.0,29.82,ESE,119,5.0,24.0,59,0.00,,,83.56,WeatherCatV1.15B25,2013-05-18 20:42:00,
2013-05-18 15:47:00,78.6,62.1,29.82,SE,143,0.0,22.0,57,0.00,,,83.56,WeatherCatV1.15B25,2013-05-18 20:47:00,
2013-05-18 15:52:00,79.0,64.4,29.82,SE,138,0.0,20.0,61,0.00,,,83.56,WeatherCatV1.15B25,2013-05-18 20:52:00,
2013-05-18 15:57:00,79.0,62.9,29.82,SE,130,0.0,7.0,58,0.76,,,83.76,WeatherCatV1.15B25,2013-05-18 20:57:00,
2013-05-18 16:02:00,79.2,63.1,29.81,SE,133,0.0,0.0,58,14.40,,,84.48,WeatherCatV1.15B25,2013-05-18 21:02:00,
2013-05-18 16:07:00,79.0,62.4,29.81,SE,137,0.0,3.0,57,14.40,,,85.71,WeatherCatV1.15B25,2013-05-18 21:07:00,
2013-05-18 16:12:00,78.5,63.0,29.81,SSE,151,0.0,7.0,59,15.16,,,86.94,WeatherCatV1.15B25,2013-05-18 21:12:00,
2013-05-18 16:17:00,78.5,62.5,29.81,SSE,154,0.0,0.0,58,0.36,,,87.70,WeatherCatV1.15B25,2013-05-18 21:17:00,
2013-05-18 16:22:00,79.0,62.9,29.81,ESE,103,0.0,1.0,58,0.09,,,87.70,WeatherCatV1.15B25,2013-05-18 21:22:00,
2013-05-18 16:27:00,79.4,63.3,29.81,SSE,157,0.0,0.0,58,15.16,,,88.27,WeatherCatV1.15B25,2013-05-18 21:27:00,
2013-05-18 16:32:00,79.4,61.8,29.81,SSE,164,0.0,0.0,55,0.12,,,88.27,WeatherCatV1.15B25,2013-05-18 21:32:00,
2013-05-18 16:37:00,79.4,63.3,29.81,South,176,0.0,2.0,58,0.06,,,88.27,WeatherCatV1.15B25,2013-05-18 21:37:00,
2013-05-18 16:42:00,79.4,62.3,29.81,ESE,117,0.0,0.0,56,0.04,,,88.27,WeatherCatV1.15B25,2013-05-18 21:42:00,
2013-05-18 16:47:00,79.8,61.7,29.81,SSW,198,0.0,0.0,54,0.00,,,88.27,WeatherCatV1.15B25,2013-05-18 21:47:00,
2013-05-18 16:52:00,80.1,61.4,29.81,SSW,205,0.0,0.0,53,0.00,,,88.27,WeatherCatV1.15B25,2013-05-18 21:52:00,
2013-05-18 16:57:00,80.3,63.7,29.81,South,189,0.0,0.0,57,14.40,,,88.41,WeatherCatV1.15B25,2013-05-18 21:57:00,
2013-05-18 17:02:00,80.1,63.0,29.81,ESE,120,0.0,2.0,56,0.23,,,89.04,WeatherCatV1.15B25,2013-05-18 22:02:00,
2013-05-18 17:07:00,79.8,64.2,29.81,ESE,112,1.0,1.0,59,15.16,,,89.47,WeatherCatV1.15B25,2013-05-18 22:07:00,
2013-05-18 17:12:00,79.2,62.6,29.81,ESE,123,0.0,6.0,57,0.38,,,90.17,WeatherCatV1.15B25,2013-05-18 22:12:00,
2013-05-18 17:17:00,79.0,62.9,29.81,SE,136,0.0,1.0,58,0.08,,,90.17,WeatherCatV1.15B25,2013-05-18 22:17:00,
2013-05-18 17:22:00,78.8,63.7,29.81,SE,128,0.0,0.0,60,0.05,,,90.17,WeatherCatV1.15B25,2013-05-18 22:22:00,
2013-05-18 17:27:00,78.6,63.5,29.81,ESE,120,0.0,0.0,60,0.00,,,90.17,WeatherCatV1.15B25,2013-05-18 22:27:00,
2013-05-18 17:32:00,78.3,62.8,29.80,SE,128,0.0,1.0,59,0.00,,,90.17,WeatherCatV1.15B25,2013-05-18 22:32:00,
2013-05-18 17:37:00,78.3,64.2,29.80,SE,128,0.0,0.0,62,0.00,,,90.17,WeatherCatV1.15B25,2013-05-18 22:37:00,
2013-05-18 17:42:00,78.1,62.6,29.80,SSE,154,0.0,0.0,59,0.00,,,90.17,WeatherCatV1.15B25,2013-05-18 22:42:00,
2013-05-18 17:47:00,78.3,63.2,29.80,SE,145,0.0,0.0,60,0.00,,,90.17,WeatherCatV1.15B25,2013-05-18 22:47:00,
2013-05-18 17:52:00,78.1,62.6,29.80,ESE,121,0.0,0.0,59,0.00,,,90.17,WeatherCatV1.15B25,2013-05-18 22:52:00,
2013-05-18 17:57:00,77.7,62.7,29.80,SE,130,0.0,0.0,60,0.00,,,90.17,WeatherCatV1.15B25,2013-05-18 22:57:00,
2013-05-18 18:02:00,77.6,63.1,29.80,ESE,107,0.0,0.0,61,0.00,,,90.17,WeatherCatV1.15B25,2013-05-18 23:02:00,
2013-05-18 18:07:00,77.7,62.7,29.80,SE,137,0.0,2.0,60,0.00,,,90.17,WeatherCatV1.15B25,2013-05-18 23:07:00,
2013-05-18 18:12:00,78.1,62.1,29.80,SE,124,0.0,0.0,58,0.00,,,90.17,WeatherCatV1.15B25,2013-05-18 23:12:00,
2013-05-18 18:17:00,78.1,62.6,29.80,SE,133,0.0,3.0,59,0.00,,,90.17,WeatherCatV1.15B25,2013-05-18 23:17:00,
2013-05-18 18:22:00,78.1,62.1,29.80,SSE,167,0.0,0.0,58,0.00,,,90.17,WeatherCatV1.15B25,2013-05-18 23:22:00,
2013-05-18 18:27:00,77.9,62.4,29.80,SE,136,0.0,2.0,59,0.00,,,90.17,WeatherCatV1.15B25,2013-05-18 23:27:00,
2013-05-18 18:32:00,78.1,63.1,29.80,ESE,121,0.0,3.0,60,0.00,,,90.17,WeatherCatV1.15B25,2013-05-18 23:32:00,
2013-05-18 18:37:00,78.1,63.1,29.80,SE,131,0.0,3.0,60,0.00,,,90.17,WeatherCatV1.15B25,2013-05-18 23:37:00,
2013-05-18 18:42:00,78.1,62.6,29.80,SE,130,0.0,3.0,59,0.00,,,90.17,WeatherCatV1.15B25,2013-05-18 23:42:00,
2013-05-18 18:47:00,77.9,62.9,29.79,SE,130,0.0,0.0,60,0.00,,,90.17,WeatherCatV1.15B25,2013-05-18 23:47:00,
2013-05-18 18:52:00,77.7,62.7,29.79,SE,130,0.0,1.0,60,0.00,,,90.17,WeatherCatV1.15B25,2013-05-18 23:52:00,
2013-05-18 18:57:00,77.6,62.6,29.79,SE,130,0.0,0.0,60,0.00,,,90.17,WeatherCatV1.15B25,2013-05-18 23:57:00,
2013-05-18 19:02:00,77.4,62.4,29.79,SE,143,0.0,1.0,60,0.00,,,90.17,WeatherCatV1.15B25,2013-05-19 00:02:00,
2013-05-18 19:07:00,77.4,62.9,29.79,SE,143,0.0,0.0,61,14.40,,,90.20,WeatherCatV1.15B25,2013-05-19 00:07:00,
2013-05-18 19:12:00,77.2,62.7,29.79,SE,141,1.0,1.0,61,15.16,,,91.34,WeatherCatV1.15B25,2013-05-19 00:12:00,
2013-05-18 19:17:00,77.0,62.5,29.79,SE,136,0.0,0.0,61,0.12,,,91.47,WeatherCatV1.15B25,2013-05-19 00:17:00,
2013-05-18 19:22:00,76.8,62.8,29.79,SE,140,0.0,1.0,62,0.06,,,91.47,WeatherCatV1.15B25,2013-05-19 00:22:00,
2013-05-18 19:27:00,76.7,63.1,29.79,SE,140,0.0,0.0,63,0.04,,,91.47,WeatherCatV1.15B25,2013-05-19 00:27:00,
2013-05-18 19:32:00,76.5,62.9,29.79,SE,140,0.0,0.0,63,0.00,,,91.47,WeatherCatV1.15B25,2013-05-19 00:32:00,
2013-05-18 19:37:00,76.3,62.8,29.79,SE,140,0.0,0.0,63,0.00,,,91.47,WeatherCatV1.15B25,2013-05-19 00:37:00,
2013-05-18 19:42:00,76.1,63.0,29.79,SE,140,0.0,1.0,64,0.00,,,91.47,WeatherCatV1.15B25,2013-05-19 00:42:00,
2013-05-18 19:47:00,75.8,63.2,29.79,SE,140,0.0,0.0,65,0.00,,,91.47,WeatherCatV1.15B25,2013-05-19 00:47:00,
2013-05-18 19:52:00,75.4,62.8,29.79,SE,140,0.0,0.0,65,0.00,,,91.47,WeatherCatV1.15B25,2013-05-19 00:52:00,
2013-05-18 19:57:00,75.1,62.9,29.79,SE,140,0.0,0.0,66,0.00,,,91.47,WeatherCatV1.15B25,2013-05-19 00:57:00,
2013-05-18 20:02:00,74.9,63.2,29.80,SE,140,0.0,0.0,67,0.00,,,91.47,WeatherCatV1.15B25,2013-05-19 01:02:00,
2013-05-18 20:07:00,74.6,62.9,29.80,SE,140,0.0,0.0,67,0.00,,,91.47,WeatherCatV1.15B25,2013-05-19 01:07:00,
2013-05-18 20:12:00,74.2,62.9,29.80,SE,140,0.0,0.0,68,0.00,,,91.47,WeatherCatV1.15B25,2013-05-19 01:12:00,
2013-05-18 20:17:00,74.0,62.8,29.79,SE,140,0.0,0.0,68,0.00,,,91.47,WeatherCatV1.15B25,2013-05-19 01:17:00,
2013-05-18 20:22:00,73.7,62.9,29.79,SE,140,0.0,0.0,69,0.00,,,91.47,WeatherCatV1.15B25,2013-05-19 01:22:00,
2013-05-18 20:27:00,73.5,62.7,29.79,SE,140,0.0,0.0,69,0.00,,,91.47,WeatherCatV1.15B25,2013-05-19 01:27:00,
2013-05-18 20:32:00,73.2,62.8,29.79,SE,140,0.0,0.0,70,0.00,,,91.47,WeatherCatV1.15B25,2013-05-19 01:32:00,
2013-05-18 20:37:00,73.0,63.0,29.79,SE,140,0.0,0.0,71,0.00,,,91.47,WeatherCatV1.15B25,2013-05-19 01:37:00,
2013-05-18 20:42:00,73.0,62.6,29.79,SE,140,0.0,0.0,70,0.00,,,91.47,WeatherCatV1.15B25,2013-05-19 01:42:00,
2013-05-18 20:47:00,72.8,62.4,29.79,SE,140,0.0,0.0,70,0.00,,,91.47,WeatherCatV1.15B25,2013-05-19 01:47:00,
2013-05-18 20:52:00,72.7,62.3,29.79,SE,140,0.0,0.0,70,0.00,,,91.47,WeatherCatV1.15B25,2013-05-19 01:52:00,
2013-05-18 20:57:00,72.5,62.5,29.79,SE,140,0.0,0.0,71,0.00,,,91.47,WeatherCatV1.15B25,2013-05-19 01:57:00,
2013-05-18 21:02:00,72.3,62.4,29.79,SE,140,0.0,0.0,71,0.00,,,91.47,WeatherCatV1.15B25,2013-05-19 02:02:00,
2013-05-18 21:07:00,72.0,62.5,29.79,SE,140,0.0,0.0,72,0.00,,,91.47,WeatherCatV1.15B25,2013-05-19 02:07:00,
2013-05-18 21:12:00,71.8,62.7,29.79,SE,140,0.0,0.0,73,0.00,,,91.47,WeatherCatV1.15B25,2013-05-19 02:12:00,
2013-05-18 21:17:00,71.5,62.4,29.79,SE,140,0.0,0.0,73,0.00,,,91.47,WeatherCatV1.15B25,2013-05-19 02:17:00,
2013-05-18 21:22:00,71.3,62.6,29.79,SE,140,0.0,0.0,74,0.00,,,91.47,WeatherCatV1.15B25,2013-05-19 02:22:00,
2013-05-18 21:27:00,71.1,62.4,29.79,SE,140,0.0,0.0,74,0.00,,,91.47,WeatherCatV1.15B25,2013-05-19 02:27:00,
2013-05-18 21:32:00,70.9,62.6,29.80,SE,140,1.0,1.0,75,0.00,,,91.47,WeatherCatV1.15B25,2013-05-19 02:32:00,
2013-05-18 21:37:00,70.8,62.5,29.80,SE,140,0.0,0.0,75,0.00,,,91.47,WeatherCatV1.15B25,2013-05-19 02:37:00,
2013-05-18 21:42:00,70.8,62.5,29.80,SE,140,0.0,4.0,75,0.00,,,91.47,WeatherCatV1.15B25,2013-05-19 02:42:00,
2013-05-18 21:47:00,70.8,62.1,29.79,SE,134,0.0,5.0,74,0.00,,,91.47,WeatherCatV1.15B25,2013-05-19 02:47:00,
2013-05-18 21:52:00,70.9,62.2,29.79,SE,134,0.0,30.0,74,0.00,,,91.47,WeatherCatV1.15B25,2013-05-19 02:52:00,
2013-05-18 21:57:00,70.9,61.8,29.79,SE,130,2.0,86.0,73,0.00,,,91.47,WeatherCatV1.15B25,2013-05-19 02:57:00,
2013-05-18 22:02:00,71.1,62.0,29.78,SE,137,0.0,2.0,73,0.00,,,91.47,WeatherCatV1.15B25,2013-05-19 03:02:00,
2013-05-18 22:07:00,71.3,61.8,29.78,SE,136,0.0,2.0,72,0.00,,,91.47,WeatherCatV1.15B25,2013-05-19 03:07:00,
2013-05-18 22:12:00,71.3,61.8,29.78,SE,136,0.0,0.0,72,0.00,,,91.47,WeatherCatV1.15B25,2013-05-19 03:12:00,
2013-05-18 22:17:00,71.1,61.6,29.78,SE,134,0.0,0.0,72,0.00,,,91.47,WeatherCatV1.15B25,2013-05-19 03:17:00,
2013-05-18 22:22:00,70.9,61.4,29.78,SE,134,0.0,0.0,72,0.00,,,91.47,WeatherCatV1.15B25,2013-05-19 03:22:00,
2013-05-18 22:27:00,70.8,61.7,29.78,SE,134,0.0,0.0,73,0.00,,,91.47,WeatherCatV1.15B25,2013-05-19 03:27:00,
2013-05-18 22:32:00,70.4,61.7,29.78,SE,134,0.0,0.0,74,0.00,,,91.47,WeatherCatV1.15B25,2013-05-19 03:32:00,
2013-05-18 22:37:00,70.3,62.0,29.78,SE,134,0.0,0.0,75,0.00,,,91.47,WeatherCatV1.15B25,2013-05-19 03:37:00,
2013-05-18 22:42:00,70.1,61.8,29.78,SE,134,0.0,0.0,75,0.00,,,91.47,WeatherCatV1.15B25,2013-05-19 03:42:00,
2013-05-18 22:47:00,70.1,61.8,29.77,SE,134,0.0,0.0,75,0.00,,,91.47,WeatherCatV1.15B25,2013-05-19 03:47:00,
2013-05-18 22:52:00,69.9,61.6,29.77,SE,134,0.0,0.0,75,0.00,,,91.47,WeatherCatV1.15B25,2013-05-19 03:52:00,
2013-05-18 22:57:00,69.8,61.9,29.77,SE,134,0.0,0.0,76,15.16,,,91.90,WeatherCatV1.15B25,2013-05-19 03:57:00,
2013-05-18 23:01:00,69.6,62.1,29.77,SE,134,0.0,0.0,77,14.40,,,92.78,WeatherCatV1.15B25,2013-05-19 04:01:00,
2013-05-18 23:06:00,69.3,62.1,29.77,SE,134,0.0,0.0,78,15.16,,,93.97,WeatherCatV1.15B25,2013-05-19 04:06:00,
2013-05-18 23:11:00,69.1,62.3,29.77,SE,134,0.0,0.0,79,14.40,,,95.24,WeatherCatV1.15B25,2013-05-19 04:11:00,
2013-05-18 23:16:00,68.8,62.0,29.77,SE,134,0.0,0.0,79,14.40,,,96.35,WeatherCatV1.15B25,2013-05-19 04:16:00,
2013-05-18 23:21:00,68.6,62.2,29.77,SE,134,0.0,0.0,80,14.40,,,97.58,WeatherCatV1.15B25,2013-05-19 04:21:00,
2013-05-18 23:26:00,68.4,62.3,29.77,SE,134,0.0,0.0,81,14.40,,,98.81,WeatherCatV1.15B25,2013-05-19 04:26:00,
2013-05-18 23:31:00,68.4,62.3,29.77,SE,134,0.0,1.0,81,0.31,,,99.46,WeatherCatV1.15B25,2013-05-19 04:31:00,
2013-05-18 23:36:00,68.4,62.3,29.77,SE,134,0.0,0.0,81,0.09,,,99.46,WeatherCatV1.15B25,2013-05-19 04:36:00,
2013-05-18 23:41:00,68.6,62.5,29.77,SE,134,0.0,0.0,81,0.05,,,99.46,WeatherCatV1.15B25,2013-05-19 04:41:00,
2013-05-18 23:46:00,68.8,62.4,29.78,SE,134,0.0,0.0,80,0.04,,,99.46,WeatherCatV1.15B25,2013-05-19 04:46:00,
2013-05-18 23:51:00,68.6,62.5,29.78,SE,134,0.0,1.0,81,0.00,,,99.46,WeatherCatV1.15B25,2013-05-19 04:51:00,
2013-05-18 23:56:00,68.6,62.5,29.78,SE,134,0.0,0.0,81,0.00,,,99.46,WeatherCatV1.15B25,2013-05-19 04:56:00,